STARLINK-11170, 60068

Orbit data source: Space-Track

STARLINK-11170, 60068 is a payload satellite owned by SpaceX/Seattle (US) in LEO that was launched on Wed, 19 Jun 2024 UTC via an FALCON 9 launch vehicle from the Air Force Western Test Range (AFWTR). Payload-class satellites include a variety of spacecraft equipped with specific instruments for various scientific and technological missions. These include communications satellites like Starlink; space stations such as the ISS; scientific satellites like the Hubble; Earth observation satellites from companies like Planet Labs, Umbra, and HawkEye 360; GPS; miniature CubeSats for education and research; and military/defense satellites.

Loading next visibility...
Identifier
60068, 2024-113K
Orbit
LEO
Country
Flag of USUS
Related business
Manufacturer
SpaceX/Seattle
Mission
Operational Commercial Communications
Bus & Motor
STARLINK V2MD, Unknown motor
Mass
960 kg wet, ~910 kg dry
Launch date (UTC)
2024-06-19 (2 years ago)
Launch vehicle
FALCON 9
Launch site
Air Force Western Test Range (AFWTR)
Object type
Payload
Rocket body
Debris
Shape & HBR
Box + 2 Pan, 18.1 m
Radar Cross Section
36.964 m², Large (>1 m²)

Expand to show TLE details & history
Last TLE update: 12 hours ago

TLE from 12 hours ago
0 STARLINK-11170
1 60068U 24113K   26171.37117104 -.00001167  00000-0 -47803-5 0  9996
2 60068  53.1595  45.3812 0000918  93.3350 266.7773 15.69701631115682
Epoch: 2026-06-20T08:54Z
TLE epoch observation values (Epoch: 2026-06-20T08:54:29.177Z)
Latitude
-0.00004°
Longitude
3.17285°
Altitude
360.701 km
Speed
7.694 km/s
True Right ascension
03h 01m 31s
True Declination
0° 00' 00"
Sunlit
Object was in daylight at epoch
Visualization orbit readout
Latitude
Unknown
Longitude
Unknown
Altitude
Unknown
Speed
Unknown
Apparent Right ascension
Unknown
Apparent Declination
Unknown
Sunlit
N/A
Visualization observer readout
Local Sidereal Time
07:20:46
Azimuth
Unknown
Elevation
Unknown
Doppler factor
Unknown
Orbital elements
Apogee altitude
360.63 km
Perigee altitude
359.393 km
Semi-major axis
6,738.148 km
Eccentricity
0.00009
Inclination
53.1595°
RAAN
45.3812°
Arg. of periapsis
93.335°
True anomaly
266.7668°
Mean anomaly
266.7773°
Eccentric anomaly
266.77205°
Mean motion
3.92403 °/min
Orbital period
91.74 mins
BSTAR
-0.0000047803
Loading maneuver chart data...
Computing Atmospheric mass density...

Documentation

Showing up to 5 results
|